"Pseudo-MPEC" for ZTF02xM

Created 2019 Apr 22 11:07:10 UT using Find_Orb

Click here for an explanation of pseudo-MPECs

 
 Astrometry: 
     ZTF02xM  C2019 04 11.25193612 21 33.46 -18 25 10.9    ~4BJX 18.65gUNEOCPI41
     ZTF02xM  C2019 04 11.25228312 21 32.85 -18 24 54.2    ~4BJX 18.65gUNEOCPI41
     ZTF02xM  C2019 04 11.29560212 19 59.66 -17 46 49.1    ~4BJX 18.02RUNEOCPI41
     ZTF02xM  C2019 04 11.29594912 19 58.97 -17 46 31.5    ~4BJX 18.02RUNEOCPI41

Station data:
(I41) Palomar Mountain--ZTF  (N33.357340 W116.859780)  US/California. 1.2-m
   f/2.44 Oschin Schmidt + CCD.

Orbital elements:  ZTF02xM
   Perihelion 2018 Dec 1.054063 +/- 67.4 TT =  1:17:51 (JD 2458453.554063)
Epoch 2019 Apr 11.0 TT = JDT 2458584.5   Earth MOID: 0.0084   Ve: 0.0411
M 166.29408093 +/- 110              (J2000 ecliptic)          AutoNEOCP
n   1.26994456 +/- 0.705            Peri.  187.85658 +/- 70
a   0.84452570 +/- 0.313            Node   202.01184 +/- 42
e   0.1998577 +/- 0.211             Incl.    5.39406 +/- 42
P   0.78/283.47d           H 27.9   G  0.15   U 12.5  SR
q 0.67574068 +/- 0.267    Q 1.01331072 +/- 5.44
From 4 observations 2019 Apr. 11 (63.4 min); mean residual 0".67
Residuals in arcseconds: 
190411 I41  .97-  .76+    190411 I41  .38-  .39+    
190411 I41  .98+  .77-    190411 I41  .37+  .38-    

Ephemerides (geocentric):
Date (UTC) HH   RA              Dec         delta   r     elong  mag " sig PA
---- -- -- --  -------------   -----------  ------ ------ -----  --- ---- ---
2019 04 22 11  10 13 16.709   +42 18 27.44  .02869 1.0130 105.1 22.8 0.0  107
2019 04 22 12  10 13 07.048   +42 21 18.57  .02878 1.0129 105.0 22.8 0.0  107
2019 04 22 13  10 12 57.440   +42 24 08.52  .02888 1.0129 104.9 22.8 0.0  106
2019 04 22 14  10 12 47.884   +42 26 57.28  .02897 1.0129 104.8 22.8 0.0  106
2019 04 22 15  10 12 38.379   +42 29 44.88  .02906 1.0129 104.7 22.8 0.0  106
2019 04 22 16  10 12 28.925   +42 32 31.32  .02915 1.0129 104.7 22.8 0.0  106
2019 04 22 17  10 12 19.522   +42 35 16.61  .02925 1.0129 104.6 22.8 0.0  106
2019 04 22 18  10 12 10.169   +42 38 00.76  .02934 1.0129 104.5 22.9 0.0  106
2019 04 22 19  10 12 00.865   +42 40 43.79  .02943 1.0129 104.4 22.9 0.0  106
2019 04 22 20  10 11 51.612   +42 43 25.71  .02953 1.0129 104.3 22.9 0.0  106
2019 04 22 21  10 11 42.407   +42 46 06.52  .02962 1.0129 104.2 22.9 0.0  106
2019 04 22 22  10 11 33.252   +42 48 46.24  .02971 1.0129 104.2 22.9 0.0  106
2019 04 22 23  10 11 24.144   +42 51 24.88  .02981 1.0129 104.1 22.9 0.0  106
2019 04 23 00  10 11 15.085   +42 54 02.45  .02990 1.0129 104.0 22.9 0.0  106
2019 04 23 01  10 11 06.074   +42 56 38.95  .02999 1.0129 103.9 22.9 0.0  106
2019 04 23 02  10 10 57.110   +42 59 14.41  .03009 1.0129 103.8 22.9 0.0  105
2019 04 23 03  10 10 48.193   +43 01 48.82  .03018 1.0129 103.8 22.9 0.0  105
2019 04 23 04  10 10 39.323   +43 04 22.20  .03027 1.0129 103.7 23.0 0.0  105
2019 04 23 05  10 10 30.500   +43 06 54.56  .03037 1.0129 103.6 23.0 0.0  105
2019 04 23 06  10 10 21.722   +43 09 25.91  .03046 1.0129 103.5 23.0 0.0  105
2019 04 23 07  10 10 12.991   +43 11 56.25  .03055 1.0129 103.4 23.0 0.0  105
2019 04 23 08  10 10 04.305   +43 14 25.60  .03064 1.0129 103.4 23.0 0.0  105
2019 04 23 09  10 09 55.663   +43 16 53.97  .03074 1.0129 103.3 23.0 0.0  105
2019 04 23 10  10 09 47.067   +43 19 21.36  .03083 1.0129 103.2 23.0 0.0  105
2019 04 23 11  10 09 38.516   +43 21 47.78  .03092 1.0128 103.1 23.0 0.0  105
2019 04 23 12  10 09 30.008   +43 24 13.25  .03102 1.0128 103.0 23.0 0.0  105
2019 04 23 13  10 09 21.544   +43 26 37.77  .03111 1.0128 103.0 23.0 0.0  105
2019 04 23 14  10 09 13.124   +43 29 01.35  .03120 1.0128 102.9 23.0 0.0  105
2019 04 23 15  10 09 04.748   +43 31 24.00  .03130 1.0128 102.8 23.1 0.0  105
2019 04 23 16  10 08 56.414   +43 33 45.72  .03139 1.0128 102.7 23.1 0.0  104
2019 04 23 17  10 08 48.123   +43 36 06.54  .03148 1.0128 102.7 23.1 0.0  104
2019 04 23 18  10 08 39.874   +43 38 26.44  .03158 1.0128 102.6 23.1 0.0  104
2019 04 23 19  10 08 31.668   +43 40 45.45  .03167 1.0128 102.5 23.1 0.0  104
2019 04 23 20  10 08 23.503   +43 43 03.57  .03176 1.0128 102.4 23.1 0.0  104
2019 04 23 21  10 08 15.380   +43 45 20.81  .03186 1.0128 102.4 23.1 0.0  104
2019 04 23 22  10 08 07.298   +43 47 37.17  .03195 1.0128 102.3 23.1 0.0  104
2019 04 23 23  10 07 59.257   +43 49 52.67  .03204 1.0128 102.2 23.1 0.0  104
2019 04 24 00  10 07 51.256   +43 52 07.31  .03214 1.0128 102.1 23.1 0.0  104
2019 04 24 01  10 07 43.297   +43 54 21.10  .03223 1.0128 102.1 23.1 0.0  104
2019 04 24 02  10 07 35.377   +43 56 34.05  .03232 1.0128 102.0 23.1 0.0  104
2019 04 24 03  10 07 27.497   +43 58 46.16  .03242 1.0127 101.9 23.2 0.0  104
2019 04 24 04  10 07 19.657   +44 00 57.44  .03251 1.0127 101.8 23.2 0.0  104
2019 04 24 05  10 07 11.856   +44 03 07.91  .03260 1.0127 101.8 23.2 0.0  104
2019 04 24 06  10 07 04.094   +44 05 17.56  .03270 1.0127 101.7 23.2 0.0  103
2019 04 24 07  10 06 56.371   +44 07 26.40  .03279 1.0127 101.6 23.2 0.0  103
2019 04 24 08  10 06 48.686   +44 09 34.45  .03288 1.0127 101.5 23.2 0.0  103
2019 04 24 09  10 06 41.040   +44 11 41.71  .03298 1.0127 101.5 23.2 0.0  103
2019 04 24 10  10 06 33.432   +44 13 48.18  .03307 1.0127 101.4 23.2 0.0  103